Flag for Chile Weather past 2 weeks in Santiago, Chile

Now
63 °F

Clear.


Feels Like: 63 °F
Forecast: 56 / 90 °F
Wind: 6 mph from South

Location: Pudahuel

Current Time: Feb 1, 2015 at 5:56:31 AM

Latest Report: Feb 1, 2015 at 5:00 AM


Visibility: 10 mi

Pressure: 29.89 "Hg

Humidity: 52%

Dew point: 45 °F

Location of SantiagoLocation

Historic Weather in Santiago — Graph

°F

Santiago temperature yesterday

Maximum temperature yesterday: 90 °F (at 3:00 PM)
Minimum temperature yesterday: 59 °F (at 4:00 AM)
Average temperature yesterday: 73 °F

Past Weeks' High & Low Weather Summary

 TemperatureHumidityPressure
High90 °F (Jan 24, 4:00 PM)94% (Jan 18, 8:00 AM)30.09 "Hg (Jan 18, 8:00 AM)
Low55 °F (Jan 18, 6:00 AM)18% (Jan 24, 4:00 PM)29.83 "Hg (Jan 26, 4:00 PM)
Average71 °F51%29.94 "Hg
* Reported Jan 17 4:00 AM — Feb 1 4:00 AM, Santiago, Weather by CustomWeather, © 2014

Note: Actual official high and low records may vary slightly from our data, if they occured in-between our weather recording intervals... More about our weather records

Advertising

Santiago weather history for previous 24 hours

 ConditionsComfort  
Time TempWeatherWind HumidityBarometerVisibility
4:00 AM
Feb 1
64 °FClear.5 mph49%29.89 "Hg10 mi
3:00 AM64 °FClear.5 mph46%29.89 "Hg10 mi
2:00 AM68 °FClear.5 mph38%29.89 "Hg10 mi
1:00 AM70 °FClear.5 mph35%29.89 "Hg10 mi
12:00 AM73 °FPassing clouds.8 mph29%29.89 "HgN/A
11:00 PM
Jan 31
75 °FClear.8 mph27%29.89 "Hg10 mi
10:00 PM77 °FClear.14 mph24%29.86 "Hg10 mi
9:00 PM79 °FClear.18 mph24%29.86 "Hg10 mi
8:00 PM82 °FSunny.20 mph25%29.83 "Hg10 mi
7:00 PM86 °FSunny.18 mph24%29.83 "Hg10 mi
6:00 PM88 °FSunny.20 mph22%29.83 "Hg10 mi
5:00 PM90 °FSunny.16 mph20%29.83 "Hg10 mi
4:00 PM90 °FPassing clouds.16 mph21%29.83 "HgN/A
3:00 PM90 °FPassing clouds.12 mph21%29.86 "HgN/A
2:00 PM86 °FPassing clouds.14 mph29%29.89 "HgN/A
1:00 PM84 °FPassing clouds.12 mph31%29.89 "HgN/A
12:00 PM79 °FPassing clouds.6 mph37%29.92 "HgN/A
11:00 AM73 °FSunny.2 mph44%29.92 "Hg10 mi
10:00 AM70 °FPassing clouds.3 mph50%29.92 "HgN/A
9:00 AM63 °FPassing clouds.3 mph59%29.92 "HgN/A
8:00 AM59 °FSunny.3 mph68%29.92 "Hg10 mi
7:00 AM59 °FClear.3 mph68%29.92 "Hg10 mi
6:00 AM61 °FClear.8 mph63%29.89 "Hg10 mi
5:00 AM59 °FClear.6 mph68%29.89 "Hg10 mi
Weather by CustomWeather, © 2014

See weather overviewHow to use our weather pages